GFSWCAN_850_rhum_120.txt.gz
RH
92 90 85 92 95 98 99 100 99 100 100 87 54 52 53 52 54 55 57 62 63 55 51 48 52 55 67 70 53 62 68 73 68 67 62 55 59 54 59 50 48 47 52 61 61 68 59 41 47 42 37 36 46 49
92 97 89 86 89 90 99 99 100 99 99 95 89 39 60 57 57 59 62 66 69 67 62 59 56 55 52 54 56 64 70 68 63 64 67 63 62 64 54 40 52 54 35 32 42 36 37 40 45 38 39 42 45 45
85 87 96 92 90 97 99 99 99 99 98 99 95 89 40 70 67 63 64 70 74 70 68 72 60 58 63 64 59 63 75 67 73 71 70 68 68 58 57 57 52 46 50 45 47 29 38 38 39 34 36 41 38 41
88 98 88 95 92 96 100 100 100 100 99 99 98 100 72 47 81 74 72 73 75 69 80 65 60 59 56 56 64 64 68 73 77 77 74 70 69 62 55 53 53 37 50 44 46 37 38 38 38 31 34 35 36 39
94 98 93 88 89 100 100 99 100 100 100 100 100 99 100 48 66 92 86 83 80 71 73 64 63 60 61 59 59 68 72 77 78 82 76 74 69 70 65 73 65 51 42 40 37 32 28 29 32 34 37 40 40 42
94 100 92 89 97 96 100 100 100 100 100 100 100 99 100 83 72 100 99 78 82 83 68 80 62 62 64 72 77 81 82 85 80 85 79 77 74 69 71 65 43 53 48 42 33 33 36 35 41 43 45 42 44 45
81 86 99 100 93 94 99 100 100 100 100 100 100 100 100 99 68 99 79 72 66 85 74 78 80 73 86 86 93 95 93 91 87 85 91 80 83 79 80 68 34 38 36 43 42 43 48 43 47 46 38 26 24 28
74 80 85 90 98 98 100 99 100 100 99 100 100 100 100 100 92 98 92 68 67 78 68 93 88 64 90 98 96 97 97 96 92 88 96 88 90 91 95 60 49 45 44 44 44 46 44 46 46 24 24 27 28 28
63 68 77 81 80 78 74 78 88 100 100 100 100 100 100 100 100 98 98 100 80 81 99 99 87 79 87 97 96 100 99 96 98 92 90 86 79 94 72 64 60 54 54 48 48 50 46 32 23 24 25 28 34 34
58 54 56 62 61 68 80 76 85 97 100 100 100 100 99 98 99 100 100 100 100 99 100 96 76 72 81 98 97 93 100 87 94 83 94 96 82 66 62 48 51 48 46 51 44 41 39 28 25 28 30 33 38 41
64 53 45 42 47 51 57 73 88 96 100 100 100 100 100 100 100 100 100 100 99 99 99 98 71 80 83 84 82 91 88 90 98 82 91 93 87 68 49 52 51 56 53 46 45 42 38 25 28 29 28 30 32 36
69 59 45 38 36 49 87 95 98 100 99 98 99 100 99 100 100 100 99 98 99 87 99 98 91 75 78 72 82 96 88 92 97 87 96 95 74 54 43 33 35 45 63 58 50 49 40 28 30 31 31 31 33 34
80 65 54 41 34 46 73 87 99 100 100 100 100 100 99 99 98 98 97 96 94 88 98 99 96 82 89 73 84 88 99 94 81 94 92 74 55 42 40 38 30 45 59 65 60 48 31 32 33 34 34 35 35 35
86 75 60 48 38 33 40 82 96 100 100 99 98 97 97 98 94 89 80 83 68 74 95 89 97 84 85 91 79 95 74 77 94 99 85 56 44 39 34 30 28 32 33 33 34 34 33 34 35 36 35 35 36 36
90 86 72 53 44 38 38 46 65 92 100 99 99 96 98 86 80 80 71 67 77 81 90 84 84 79 88 90 83 84 95 98 82 78 68 44 36 37 37 29 32 36 37 37 38 40 38 37 36 36 36 35 36 36
82 98 89 69 50 41 38 42 59 93 99 100 99 99 100 98 95 87 80 75 82 91 77 70 89 94 91 84 96 94 85 89 75 82 43 35 34 34 34 27 34 36 36 36 36 38 41 42 41 38 34 33 35 37
67 99 94 75 64 48 45 60 97 94 97 98 97 98 96 89 80 85 78 74 80 82 88 94 97 88 89 91 96 79 85 78 56 32 31 33 37 36 28 27 35 36 36 37 40 42 42 41 40 41 36 31 36 38
78 99 97 85 66 60 65 87 85 93 98 94 99 88 92 96 85 84 78 70 84 82 80 93 78 96 94 86 84 77 68 39 34 31 35 31 27 29 25 26 32 35 36 36 39 40 40 42 42 40 38 39 39 40
75 95 99 91 84 77 67 82 77 99 90 89 76 84 96 95 88 89 81 74 71 80 83 97 98 96 87 76 73 43 42 39 34 30 30 35 30 25 24 29 35 39 38 36 37 41 43 45 43 43 37 42 40 42
70 90 99 98 98 98 93 95 98 90 98 63 61 71 74 70 75 85 90 80 88 98 99 98 95 78 78 58 48 38 33 29 38 37 45 51 32 24 25 28 28 29 31 31 38 45 49 48 45 40 41 43 40 41
80 81 99 98 99 97 85 82 100 100 84 100 97 100 87 92 96 92 98 95 97 98 96 88 78 68 66 63 58 50 46 42 39 37 36 36 38 34 34 27 26 32 36 40 45 49 54 51 47 41 44 40 47 54
90 88 98 99 98 98 86 93 85 85 100 97 98 94 97 99 93 90 92 99 94 90 85 79 73 71 71 70 59 56 54 54 49 45 46 44 40 40 41 42 31 29 33 43 49 54 57 56 50 44 41 46 58 56
89 98 98 98 98 97 92 85 99 89 98 96 96 97 95 99 81 77 98 98 88 78 73 78 77 66 70 64 64 65 64 62 62 59 56 53 50 48 41 46 49 48 48 58 58 59 61 60 47 44 47 56 57 58
97 98 98 97 92 96 97 95 94 99 100 100 98 90 96 95 89 99 92 82 74 72 82 80 80 81 80 81 74 69 70 75 73 69 65 65 64 62 57 72 89 92 79 68 60 65 66 52 46 49 53 57 58 62
98 98 97 96 97 96 95 96 97 100 99 100 99 95 94 100 99 92 87 69 67 71 74 78 76 78 83 77 74 73 73 80 82 82 73 76 70 71 72 83 92 78 73 73 72 71 62 48 48 52 53 56 61 69
96 96 95 94 93 90 94 99 99 98 95 99 98 90 99 95 96 94 90 56 58 55 52 53 63 78 82 80 79 75 72 73 74 76 75 76 76 76 78 76 78 72 72 73 70 60 44 46 51 50 50 60 71 81
96 96 95 86 84 91 97 90 88 91 96 97 95 100 95 99 92 77 47 46 46 42 43 43 46 51 51 52 58 59 66 73 74 74 71 75 77 77 79 81 77 67 68 57 42 40 43 45 45 49 62 74 82 86
84 95 94 93 98 90 97 100 100 100 94 89 95 95 95 94 86 48 45 43 44 50 52 52 47 50 47 42 47 58 67 72 74 77 80 82 88 90 92 83 75 69 63 49 45 43 42 43 49 62 74 82 89 90
100 86 88 94 97 100 96 92 91 81 73 82 92 92 88 67 55 53 52 51 49 50 48 47 46 46 44 42 42 44 54 72 85 84 86 91 91 85 78 63 57 52 51 48 46 46 47 50 59 76 87 95 99 100
98 84 96 100 99 100 83 72 63 44 47 50 53 59 59 58 48 46 48 40 35 40 43 49 49 49 47 47 44 50 54 57 75 94 93 83 51 43 46 45 44 43 45 47 47 47 49 58 74 83 100 100 100 100
75 95 94 98 93 62 50 45 49 52 58 64 64 74 67 56 46 40 44 39 40 38 41 46 47 50 50 50 48 52 60 59 47 51 51 43 43 40 45 42 41 42 44 46 48 49 56 66 84 100 100 100 100 99
97 96 94 100 100 69 63 66 67 68 64 71 75 70 72 75 77 55 38 47 45 41 40 47 52 51 47 46 49 73 70 55 44 41 41 42 48 44 42 42 44 45 46 48 51 57 68 90 100 100 100 99 99 99
100 100 100 89 99 100 87 84 100 100 100 100 87 73 76 72 73 59 54 49 46 45 48 52 50 50 51 50 54 60 76 74 47 38 40 42 42 44 46 47 49 49 50 52 58 70 90 100 100 100 99 98 96 94

GFSWCAN_850_rhum_123.txt.gz
RH
98 87 78 86 86 86 87 93 100 99 99 100 100 92 55 58 64 64 59 60 60 66 58 44 42 53 61 57 37 56 62 66 63 58 48 43 44 39 48 33 36 42 48 54 49 55 64 32 44 38 32 34 39 40
99 94 92 91 94 91 85 90 96 100 99 99 99 99 89 56 64 67 64 62 66 68 67 58 56 51 50 55 51 57 53 57 47 53 51 42 48 44 38 30 37 44 28 26 34 36 26 31 28 31 39 37 36 38
100 98 94 89 83 87 88 89 99 100 100 100 99 99 100 73 71 75 71 68 73 75 72 74 63 60 61 58 54 56 56 58 72 72 54 48 54 39 41 41 32 34 30 41 35 23 25 25 30 32 32 33 34 37
100 97 93 94 97 90 92 96 98 100 100 100 100 100 99 100 65 82 86 75 78 75 78 66 59 58 56 57 64 62 72 68 74 76 64 59 53 41 39 34 42 25 38 36 33 28 29 30 30 31 33 34 36 41
89 85 90 93 95 99 96 93 99 100 100 100 100 100 100 100 98 66 83 89 84 74 80 73 67 58 60 60 58 66 72 82 81 76 72 65 52 61 54 54 55 34 36 36 30 22 23 23 32 30 34 39 42 48
91 81 80 98 100 95 95 98 99 100 100 100 100 100 100 100 100 82 98 73 89 91 82 86 73 63 60 62 73 74 78 89 83 79 67 62 63 62 62 60 36 31 36 32 27 28 29 31 39 35 42 46 46 41
70 75 77 82 89 89 99 100 99 100 100 100 100 100 100 100 100 97 87 76 72 100 88 87 81 76 77 77 95 100 100 96 87 84 80 69 74 79 73 66 30 30 34 37 38 36 38 42 44 43 38 39 27 26
67 65 66 72 79 88 88 96 98 100 99 100 100 100 100 100 100 100 92 86 81 99 94 96 94 72 82 90 90 100 96 99 94 85 88 82 72 79 91 54 42 42 37 37 42 44 39 37 45 45 45 32 23 25
69 67 64 62 67 72 83 83 83 79 84 96 100 100 100 100 100 98 98 100 99 90 100 99 92 92 84 92 95 99 98 90 91 95 86 79 74 90 70 62 51 45 43 44 42 44 49 50 43 42 26 23 30 33
73 68 67 62 58 58 66 68 74 78 82 96 100 100 99 99 98 97 100 100 100 99 100 97 88 71 82 87 89 83 92 80 88 76 83 96 79 55 51 52 56 48 50 52 55 55 56 55 43 26 24 29 32 33
64 78 74 67 60 51 48 53 63 68 88 100 100 100 99 100 100 100 100 100 99 99 99 99 82 73 80 78 76 84 84 84 95 80 90 86 83 65 46 53 47 50 49 51 49 39 27 30 24 27 29 31 33 34
48 82 82 73 63 51 41 40 56 97 99 100 99 100 99 100 100 100 99 100 99 96 99 98 92 69 82 73 76 91 90 88 94 80 93 92 66 50 47 46 40 38 46 52 58 55 39 37 28 29 30 31 33 33
49 68 86 84 70 56 42 39 62 87 97 100 100 99 99 99 98 97 95 100 98 87 90 99 96 84 79 75 87 99 98 90 72 87 85 69 54 51 39 33 42 36 32 50 64 63 52 47 32 32 31 32 30 30
51 53 64 79 84 64 48 40 62 99 99 99 99 98 96 97 92 88 78 84 73 85 97 90 93 88 100 97 100 97 80 71 86 90 80 52 44 39 38 37 35 25 43 63 70 64 55 47 32 31 30 31 30 31
55 57 54 61 88 77 59 45 57 82 98 100 99 97 97 80 85 86 80 75 72 85 91 91 91 83 94 99 96 97 94 92 74 73 67 48 36 35 36 38 32 26 35 46 56 56 41 35 34 34 34 32 32 33
63 60 60 59 88 97 61 56 69 89 91 99 99 100 99 95 94 98 89 87 83 90 81 90 98 97 97 96 96 91 87 84 77 83 41 33 31 33 35 35 34 27 32 34 36 38 40 38 36 37 38 39 38 37
73 73 66 62 62 98 89 73 76 92 93 98 95 99 100 98 90 83 92 82 85 88 97 100 98 92 95 96 94 74 83 77 58 36 29 28 30 35 35 32 33 29 34 36 38 40 38 40 40 42 41 42 41 40
90 73 66 69 67 95 99 96 74 92 98 98 97 92 100 99 93 90 86 92 98 99 100 99 96 98 95 93 81 76 70 44 39 36 34 30 31 33 32 31 31 29 35 36 37 37 40 42 41 42 44 45 44 38
80 72 68 77 85 98 98 99 94 94 86 80 73 66 67 75 80 82 87 87 80 85 97 99 99 97 87 81 78 65 56 42 36 36 33 29 31 35 48 48 34 27 31 36 38 38 39 39 42 44 47 49 47 41
80 76 72 80 91 98 98 98 96 79 90 72 74 78 81 69 74 82 85 89 85 96 99 98 88 76 71 61 59 58 56 54 49 41 39 40 35 43 56 59 49 28 24 34 40 41 42 42 41 46 51 52 50 41
87 80 84 93 100 98 97 98 99 99 73 75 58 67 62 67 73 67 77 95 98 90 83 71 72 66 60 59 58 63 58 57 54 55 52 46 45 52 55 46 46 37 31 30 32 34 38 37 36 48 55 64 60 45
95 81 93 98 98 98 97 94 87 79 100 88 98 88 75 77 80 85 79 98 94 81 73 70 66 65 67 69 66 64 64 67 68 65 64 61 55 50 44 42 44 58 57 47 53 61 50 34 42 56 70 74 62 48
98 97 99 97 98 98 98 95 97 99 94 93 97 86 83 82 70 63 98 95 76 69 69 73 76 71 73 70 74 75 74 74 78 78 75 71 67 64 63 59 57 54 51 48 48 51 49 48 48 78 89 75 65 47
99 96 97 97 98 97 97 98 98 100 97 94 93 87 83 81 58 88 79 55 51 56 66 69 69 80 81 83 87 87 76 75 80 80 80 77 77 74 71 67 64 64 59 55 48 68 92 98 100 99 99 74 60 47
98 98 97 97 98 96 96 94 88 91 96 89 82 86 88 91 91 91 72 57 55 60 63 66 78 83 86 82 80 77 73 79 82 83 78 84 85 82 79 77 75 71 69 64 59 66 93 97 91 99 95 76 54 51
97 96 96 89 95 93 91 95 94 97 91 95 90 82 93 85 90 85 60 40 46 47 47 57 65 77 80 83 82 80 72 74 78 80 77 77 78 83 85 85 85 81 74 77 84 96 89 95 99 88 77 63 52 57
96 96 99 94 86 86 90 80 81 83 94 91 87 96 93 98 93 63 36 36 40 44 51 68 78 93 97 98 90 90 82 73 74 73 75 78 78 77 80 84 85 81 85 90 94 98 96 85 73 70 54 52 56 58
89 96 94 94 93 88 89 84 90 86 80 77 79 93 90 83 60 32 32 33 46 56 54 49 55 59 58 58 57 53 51 52 52 57 64 69 68 77 81 86 86 98 100 99 99 86 62 51 50 52 53 55 58 68
92 89 84 94 96 96 90 83 83 73 58 82 82 63 69 44 40 42 37 34 37 45 41 39 33 31 31 34 31 30 42 50 50 52 61 62 62 65 71 87 98 100 100 92 82 63 54 52 52 54 57 64 75 86
95 88 92 91 100 100 84 72 58 39 41 43 48 47 47 48 45 42 42 39 42 43 42 39 31 38 38 38 34 24 23 41 49 50 61 64 61 84 86 90 87 86 89 80 66 59 55 54 52 54 61 78 93 100
78 82 89 89 91 62 52 48 53 52 56 62 61 70 64 57 54 51 50 47 48 47 44 40 31 27 31 25 28 30 33 35 46 47 58 58 56 63 68 62 61 59 58 55 52 52 53 53 56 68 80 97 100 99
99 93 88 98 90 64 60 63 64 66 57 67 66 61 66 67 64 55 46 44 45 46 41 35 36 23 20 30 30 41 45 47 51 58 64 48 42 52 52 52 52 50 46 47 50 52 54 62 68 74 93 100 100 100
100 98 99 84 93 90 83 77 96 96 95 89 73 66 66 66 69 55 51 41 43 40 37 38 44 49 51 51 57 57 58 57 58 80 73 53 46 47 46 46 46 45 46 49 50 52 60 72 82 96 100 100 100 100

GFSWCAN_850_rhum_126.txt.gz
RH
98 94 90 98 97 92 90 94 99 95 92 99 99 97 100 94 64 67 63 60 60 68 57 51 41 45 52 50 50 58 65 70 75 75 65 60 56 51 53 41 53 70 82 87 80 78 78 37 46 50 37 31 36 38
99 100 99 99 100 94 96 95 95 96 93 98 100 99 99 100 81 73 71 64 63 69 60 57 56 50 44 48 47 50 56 57 55 74 70 60 58 55 52 53 37 48 41 45 56 59 35 34 26 27 31 33 36 38
100 95 98 100 100 100 100 100 96 94 94 98 100 99 100 100 100 73 79 76 75 75 67 75 63 58 58 52 50 50 51 51 60 65 71 68 71 54 60 57 40 40 32 49 39 34 27 26 28 28 25 34 34 32
83 87 94 95 99 100 100 100 99 99 97 99 100 100 99 99 100 99 78 78 84 78 84 71 65 58 55 56 60 56 52 64 67 70 72 85 78 44 57 51 51 36 38 43 47 35 29 25 23 25 28 29 31 30
90 91 92 88 89 95 98 98 98 100 100 99 100 100 100 100 100 100 98 76 89 78 91 79 70 66 60 57 56 64 66 70 73 80 90 88 61 61 62 67 64 42 41 46 35 25 26 25 25 24 25 30 31 34
73 77 87 93 85 86 98 96 99 100 100 100 99 100 100 100 100 100 99 95 82 100 96 99 79 74 67 65 70 67 72 78 78 80 76 65 58 61 84 81 46 37 38 32 29 28 26 27 29 29 30 33 38 42
79 72 70 70 76 88 89 97 94 100 98 100 100 100 100 100 100 99 95 84 76 100 99 99 94 87 84 80 94 95 90 91 86 83 82 75 76 66 91 76 41 33 32 34 34 33 34 34 34 34 35 37 41 40
78 80 74 68 65 64 71 79 86 89 91 98 94 100 100 100 100 100 98 91 81 99 99 99 97 81 82 97 97 99 98 99 94 89 85 91 74 79 97 56 47 46 47 42 39 36 36 37 38 41 43 43 41 29
35 38 66 72 67 63 62 63 75 83 85 85 85 93 98 100 100 99 98 100 100 99 99 99 96 95 85 88 97 98 96 93 88 98 94 88 90 96 73 59 56 55 49 42 40 41 41 39 39 41 43 42 41 21
33 36 31 54 69 65 63 59 57 65 68 84 98 100 100 100 99 99 100 100 100 100 100 98 98 90 77 92 94 90 93 85 97 89 79 98 84 62 54 55 57 57 57 47 47 49 43 45 44 48 48 44 28 27
37 36 38 41 74 76 67 61 52 50 68 94 99 100 99 99 100 100 100 99 99 99 99 98 94 86 72 91 89 83 95 91 92 89 93 92 91 68 47 51 47 45 50 52 50 50 48 40 40 44 45 26 28 31
55 46 38 41 54 84 74 63 49 48 77 94 99 99 99 99 100 99 98 99 99 96 100 98 96 81 77 71 83 96 98 96 96 95 98 94 77 52 48 43 37 38 47 49 51 53 53 50 36 28 26 27 28 29
59 59 51 42 47 77 86 69 53 52 68 99 97 100 99 99 98 98 97 98 99 99 99 100 98 85 78 74 96 99 98 96 79 94 87 82 64 50 41 38 40 39 41 40 35 52 55 54 34 29 28 29 30 30
60 64 62 54 49 57 83 85 62 61 96 95 100 98 97 98 94 92 91 92 77 82 97 93 96 94 99 99 99 98 94 97 97 99 89 71 46 37 30 32 36 38 34 33 44 49 59 58 44 34 30 31 31 30
61 62 66 64 55 54 62 93 82 68 91 98 100 96 97 80 85 94 85 82 78 86 94 94 98 98 99 99 99 99 97 96 89 85 78 46 39 38 37 34 33 34 28 33 56 66 63 61 53 43 33 32 31 31
63 66 69 67 65 58 59 88 99 93 99 92 100 99 96 96 94 99 92 93 83 94 100 100 99 99 97 97 98 96 97 91 82 86 46 41 42 35 34 37 36 34 30 27 44 59 61 57 47 35 34 34 36 36
71 79 60 67 65 59 60 83 99 99 97 99 97 100 97 92 90 89 89 89 84 97 98 99 98 95 96 98 98 98 94 85 67 48 48 60 52 35 34 32 33 35 35 29 32 42 48 42 40 37 35 38 43 45
98 78 67 66 68 68 73 88 98 98 98 95 87 84 94 89 80 81 85 85 97 100 100 99 100 98 97 96 95 90 69 58 54 48 47 51 42 36 33 36 39 49 40 34 30 36 40 44 42 37 38 40 45 48
86 72 66 80 85 96 96 98 97 98 95 87 89 75 69 74 73 70 75 93 96 93 99 100 99 98 98 93 90 64 64 61 60 58 57 54 47 48 44 41 43 63 60 67 69 36 38 40 39 39 41 43 44 51
82 74 70 73 94 98 98 97 97 98 98 80 65 76 73 68 62 60 60 70 79 95 99 98 95 87 81 62 60 62 62 62 62 66 62 55 53 54 51 46 48 50 54 58 74 59 37 42 41 39 40 43 44 50
87 72 68 78 99 98 94 97 98 97 85 80 74 71 72 73 70 74 77 73 96 86 94 73 70 66 59 56 52 57 59 59 61 60 64 64 64 67 64 60 58 56 54 48 60 65 68 53 36 39 48 48 48 48
83 74 76 90 98 98 98 94 96 97 99 92 81 68 84 92 90 79 67 86 87 72 70 59 55 53 58 57 57 59 59 59 66 71 74 75 76 72 71 68 66 62 58 56 49 50 57 62 56 52 50 65 79 52
86 93 99 97 98 98 97 92 97 97 96 97 95 95 97 93 64 64 96 78 71 63 60 61 52 51 70 69 70 68 66 66 70 75 76 77 77 76 76 74 74 73 69 65 62 61 57 57 55 51 52 54 52 55
88 97 97 98 97 97 98 98 98 99 98 95 95 96 95 88 81 95 93 67 58 56 61 54 58 76 78 80 80 72 46 65 83 84 81 85 86 81 81 81 79 80 76 73 71 71 70 67 63 55 56 83 88 97
98 97 98 97 98 97 97 98 99 97 96 96 96 93 92 80 97 100 93 73 49 50 50 50 54 57 70 78 80 77 60 77 81 82 78 84 89 88 86 84 82 81 80 81 78 76 76 73 71 70 85 89 91 97
94 95 94 90 97 92 94 98 95 95 95 96 90 83 88 96 99 95 85 46 47 45 45 48 52 62 66 65 65 73 79 83 92 89 82 83 87 88 86 90 89 82 75 75 81 82 81 81 79 80 81 91 100 100
96 97 98 93 85 89 92 82 78 95 95 94 96 100 98 96 95 86 42 35 35 30 30 34 50 57 60 60 58 54 52 49 58 69 62 66 68 75 79 87 90 76 75 80 84 88 91 94 99 100 100 100 100 99
85 87 91 97 95 91 94 94 94 95 91 77 86 96 93 91 79 38 30 24 24 27 29 40 47 54 52 48 40 42 46 35 27 33 42 44 39 45 47 52 63 70 79 84 92 96 98 99 99 99 99 98 88 75
95 85 85 96 100 97 95 91 90 69 52 70 81 65 81 38 33 33 29 28 28 33 39 42 37 33 37 43 41 39 41 37 42 40 37 38 30 32 42 52 67 75 85 94 99 99 99 99 99 86 78 85 84 83
98 87 91 93 97 99 86 70 57 43 44 44 48 44 42 39 36 34 36 38 41 41 38 38 41 42 37 34 30 28 34 34 32 40 52 41 31 33 48 62 74 79 89 99 99 99 98 91 85 86 86 86 87 88
87 90 92 93 93 65 57 50 52 51 56 59 53 60 54 50 48 48 49 47 47 46 47 46 42 36 40 41 36 32 34 25 23 30 39 46 52 53 55 66 78 84 73 82 96 93 79 72 77 82 80 80 85 93
92 90 92 100 95 69 70 71 71 70 63 70 68 62 60 63 66 52 42 39 42 45 41 39 42 36 25 30 38 45 43 37 39 44 55 54 59 73 66 63 65 61 60 64 66 72 77 77 76 76 81 89 97 100
100 98 99 86 88 87 78 71 87 96 90 95 66 56 60 61 64 50 44 45 47 46 46 45 44 46 44 48 53 55 58 58 57 62 58 57 65 76 56 53 53 52 53 54 57 64 71 76 78 83 90 96 100 100

GFSWCAN_850_rhum_129.txt.gz
RH
85 93 86 87 98 100 100 100 96 93 100 100 100 98 100 98 98 87 65 62 64 63 53 45 47 43 50 51 55 54 60 73 84 84 81 74 67 56 54 54 83 88 94 91 77 90 88 43 48 32 25 31 27 32
90 91 85 94 99 99 99 98 99 99 100 100 100 98 99 100 100 99 86 71 67 68 54 49 53 53 53 46 45 48 53 67 66 82 84 72 65 67 65 62 46 60 64 77 75 72 44 36 31 26 29 31 30 31
78 85 97 100 100 93 97 100 98 100 100 99 99 99 99 99 100 100 99 85 79 76 66 67 56 56 58 54 51 55 55 50 58 65 74 79 73 68 70 70 46 42 38 49 39 34 37 35 32 29 28 28 29 33
74 81 87 84 85 90 86 100 100 100 100 99 95 95 99 100 100 100 100 99 88 82 88 68 66 60 58 55 62 57 57 58 62 66 70 86 84 59 66 56 58 41 43 48 50 35 30 27 25 23 24 26 27 29
72 71 77 88 91 92 88 94 100 93 92 98 100 98 92 97 100 100 100 100 99 88 88 81 73 67 64 62 60 59 66 68 65 76 90 96 77 67 67 74 65 44 39 45 35 24 27 24 24 24 25 25 24 30
74 72 72 70 75 78 84 88 91 95 96 97 99 96 99 97 100 100 100 97 98 100 97 99 79 78 74 70 75 67 65 78 74 74 80 65 62 63 89 94 47 36 35 35 31 27 27 26 28 30 29 28 26 27
36 61 82 81 73 69 68 69 77 84 89 96 100 100 100 99 100 100 96 92 86 100 100 99 99 89 89 80 79 81 83 87 84 80 89 80 76 70 94 81 40 36 35 34 36 39 40 38 35 32 32 33 33 33
30 32 44 68 78 74 66 62 62 67 78 87 97 88 97 93 99 100 99 98 89 98 99 100 97 89 85 95 96 97 96 98 91 90 93 93 83 77 96 65 52 51 50 45 41 41 41 39 39 38 36 37 39 38
31 29 29 30 36 55 71 66 62 60 60 70 82 91 86 92 99 98 98 100 100 100 99 99 98 94 87 93 98 97 97 99 88 99 98 91 95 96 76 61 58 56 56 49 47 47 43 45 42 47 42 41 42 39
34 31 30 30 32 32 44 72 68 64 58 56 73 89 99 99 99 100 100 100 100 100 100 99 95 96 85 95 100 94 98 91 98 91 90 99 86 67 54 56 58 59 59 60 59 60 58 52 45 42 44 42 42 43
51 47 45 41 34 35 39 80 76 68 55 60 88 96 98 99 100 100 100 99 99 99 100 98 92 87 78 93 92 87 98 98 97 92 93 96 95 70 53 54 49 47 46 47 54 56 58 57 52 46 42 42 49 50
39 44 49 54 51 39 40 68 86 76 59 93 98 99 100 99 100 99 98 97 98 94 99 98 96 94 80 73 85 99 98 98 96 96 98 96 77 58 46 38 34 39 40 40 40 47 52 55 56 53 50 39 47 35
46 42 49 52 57 53 43 48 89 95 72 64 73 100 100 98 98 97 96 98 98 97 99 100 99 90 89 85 99 99 98 97 98 98 91 84 64 48 41 35 35 35 35 36 31 31 35 44 52 56 50 32 30 34
52 49 49 55 58 61 54 47 70 99 96 82 96 98 97 97 97 92 92 90 76 86 99 95 97 92 97 99 98 99 93 97 97 97 92 76 49 39 42 41 37 37 37 36 30 37 47 48 58 54 34 34 34 34
61 54 55 58 61 62 60 52 57 93 98 98 99 97 98 84 85 92 88 84 86 86 94 97 99 100 99 99 98 99 97 96 92 86 80 50 48 57 56 48 41 39 37 35 31 44 60 61 61 51 36 36 36 34
88 85 70 55 57 61 62 60 61 77 99 99 99 98 95 98 92 98 95 92 89 96 100 100 99 99 98 98 98 97 96 93 82 88 47 52 61 60 54 44 40 39 42 38 32 37 58 65 61 57 52 42 36 39
91 95 64 63 60 62 66 81 88 86 80 99 98 83 72 84 79 86 91 100 99 100 99 99 98 94 96 98 98 93 94 87 62 61 65 50 55 52 44 42 44 40 59 54 48 42 41 57 61 59 51 39 39 43
97 77 78 70 65 67 76 99 97 96 99 92 98 96 92 67 64 65 73 78 91 98 99 98 100 98 98 97 96 92 74 70 66 67 66 62 59 52 44 46 39 45 57 58 60 61 64 56 44 47 44 42 42 41
82 79 79 80 79 90 96 98 96 98 81 73 86 89 81 75 72 65 62 63 67 75 90 100 99 99 90 95 93 77 69 65 68 72 74 68 56 52 46 46 45 40 50 62 58 54 53 57 66 54 45 50 47 43
80 75 76 80 86 98 98 98 98 90 100 68 72 72 74 72 59 66 59 66 87 98 99 99 96 74 78 68 60 61 48 52 70 72 61 50 47 49 53 50 45 39 42 44 47 55 53 54 64 67 49 40 46 47
85 74 76 85 95 98 97 97 98 95 94 88 66 72 76 69 80 75 74 72 100 94 94 67 55 47 45 47 51 57 63 64 67 57 54 61 48 55 54 56 60 62 64 64 62 53 56 55 53 62 69 71 64 56
83 87 88 85 97 98 97 92 97 92 84 90 89 77 81 93 85 80 70 81 83 71 67 67 64 61 61 58 53 58 54 49 52 59 62 66 72 69 60 57 71 78 79 76 74 72 66 63 62 60 59 60 66 61
90 94 92 94 98 97 84 75 98 96 98 96 94 99 99 99 66 63 88 83 76 66 63 69 64 58 66 55 59 58 57 60 64 68 70 64 60 64 74 72 73 79 82 81 77 78 75 72 72 71 67 64 61 61
85 96 96 97 98 95 96 99 99 100 99 98 95 96 100 97 81 98 98 70 54 51 58 54 56 64 63 64 64 47 40 58 67 65 64 73 77 73 77 78 80 85 86 83 84 86 85 82 80 78 77 75 74 72
98 97 97 95 91 100 98 96 97 98 96 98 98 96 90 95 99 98 98 74 57 54 52 55 55 55 61 52 51 60 39 55 63 74 62 71 82 85 84 84 85 82 71 84 84 82 79 80 80 81 82 82 79 77
96 88 93 91 94 95 95 98 99 96 97 100 96 82 90 95 99 94 92 51 46 45 44 44 42 44 50 42 43 41 41 48 50 65 66 58 63 78 96 97 86 63 52 67 71 80 83 83 84 85 87 88 86 85
96 92 99 82 80 88 96 85 82 95 100 97 97 100 99 97 94 87 44 41 41 37 34 35 36 34 32 30 31 38 44 47 49 46 45 55 55 56 61 74 69 34 34 40 58 65 69 80 89 84 84 88 93 98
83 72 81 88 97 90 92 95 97 97 94 82 93 100 95 90 83 44 36 26 26 29 30 30 29 31 30 31 38 44 49 51 46 44 45 41 32 28 21 20 17 20 25 44 56 65 74 88 98 98 98 99 99 99
97 92 80 100 96 98 95 91 91 77 61 76 83 73 84 46 41 40 35 34 36 35 33 30 29 31 33 39 43 46 50 51 54 50 45 44 30 16 16 17 27 34 49 64 76 81 89 100 100 99 99 98 98 97
92 88 91 98 98 99 84 78 75 52 57 52 50 50 50 47 42 41 41 40 40 38 36 35 34 35 37 40 40 40 37 37 39 40 54 50 27 19 21 31 48 56 80 84 84 86 98 99 98 98 98 97 97 95
86 90 94 95 94 67 57 57 60 66 65 65 61 63 58 55 50 47 46 42 39 38 39 39 38 37 40 42 45 47 50 36 38 35 35 33 34 32 34 46 61 67 79 94 89 89 99 98 98 96 91 88 88 92
97 93 95 100 98 72 72 71 71 69 68 72 71 65 64 65 67 53 40 36 41 46 42 44 52 51 41 47 48 48 48 47 43 43 48 52 50 45 55 60 63 76 80 84 83 93 100 91 77 76 80 85 90 95
98 97 100 92 88 84 82 72 89 91 92 98 70 58 62 60 68 48 40 37 39 36 33 33 35 37 40 45 51 52 52 53 52 53 55 60 61 66 69 65 70 71 70 69 76 89 81 77 77 74 78 87 97 100

GFSWCAN_850_rhum_135.txt.gz
RH
71 72 68 64 64 82 91 93 92 94 98 99 100 100 99 100 99 100 100 100 91 70 75 69 60 50 49 52 53 52 60 74 85 84 82 79 83 66 56 63 88 86 93 89 71 78 87 49 52 46 28 19 26 26
50 62 70 73 78 90 88 90 99 99 99 94 98 100 97 100 100 100 100 100 100 96 86 89 88 84 56 54 51 52 54 65 64 81 88 82 80 80 70 62 73 73 68 80 75 70 45 43 40 31 31 34 30 30
39 45 52 66 73 76 90 99 100 99 99 97 99 100 99 100 100 100 100 100 100 100 96 95 77 71 69 68 68 59 52 50 58 54 63 78 79 76 78 80 59 61 55 66 60 45 49 43 38 29 28 31 27 30
27 33 35 44 54 70 79 87 94 94 95 96 94 99 100 98 96 100 100 100 100 100 100 89 84 79 76 68 65 65 62 57 56 65 76 85 89 65 74 60 60 44 56 60 60 38 32 30 29 28 25 26 26 25
26 27 32 36 43 51 57 68 80 89 90 89 90 88 88 83 84 95 99 97 97 100 99 94 88 80 81 83 80 65 66 73 71 80 92 97 80 75 79 81 81 46 41 47 49 35 32 30 29 29 34 34 34 34
20 24 27 28 38 50 56 60 62 65 71 73 70 81 83 86 94 100 100 94 97 100 100 99 98 90 79 83 80 88 78 76 86 97 97 82 75 66 99 98 60 49 46 41 45 44 42 40 38 38 40 40 37 40
24 22 22 24 27 30 40 54 65 67 64 63 65 67 70 77 95 99 95 90 99 100 100 99 99 99 99 92 87 85 86 88 85 98 100 99 80 80 99 88 59 53 50 49 47 48 49 47 46 43 43 44 47 47
28 27 27 25 24 25 26 34 54 68 70 62 55 52 54 67 80 90 78 90 100 100 100 100 99 99 97 90 94 94 94 97 97 99 100 100 92 99 98 74 57 57 58 59 58 56 56 56 56 56 55 55 55 54
36 35 33 30 29 28 27 27 28 31 49 66 58 53 52 51 90 94 84 92 100 100 100 100 99 96 100 96 94 98 99 100 93 99 99 99 94 96 76 63 58 58 58 53 56 59 58 65 64 57 60 60 63 61
41 51 59 55 38 31 29 28 28 30 34 63 66 55 89 91 87 87 75 100 100 100 100 99 99 98 94 100 100 99 100 96 98 92 96 99 94 70 56 57 61 59 58 60 62 57 51 52 58 58 56 54 58 60
59 53 65 65 63 58 46 46 38 38 62 82 72 93 93 89 94 95 97 100 99 99 100 98 98 88 89 95 95 97 98 98 98 89 97 97 94 75 55 47 54 53 48 44 45 43 42 45 42 43 42 43 49 57
64 65 66 55 47 45 50 55 53 43 93 91 98 98 97 94 95 100 98 99 100 94 92 96 96 98 94 91 97 99 98 98 95 96 98 97 78 53 54 52 47 52 49 44 44 36 32 42 53 54 54 53 48 59
72 79 76 75 68 56 41 48 61 56 64 90 94 70 99 96 97 97 96 98 97 92 91 99 95 99 99 99 100 99 98 96 95 98 92 85 68 50 49 61 53 51 47 51 45 36 37 42 48 51 53 55 56 57
66 66 68 67 68 77 72 72 66 72 70 97 98 97 97 95 95 93 92 89 69 82 98 99 99 99 100 99 99 99 91 97 99 98 94 82 64 70 67 61 44 38 41 58 53 45 52 51 47 50 54 47 41 42
74 74 60 62 64 63 65 68 66 82 84 99 99 95 96 78 74 81 83 77 70 91 99 100 98 99 99 99 98 98 98 96 93 89 84 80 99 94 85 82 75 57 40 34 35 52 57 61 58 52 56 45 47 49
73 71 69 68 63 62 67 68 73 86 97 95 100 97 97 99 94 90 100 99 92 93 99 100 96 97 98 98 99 96 97 94 85 93 88 100 100 99 100 98 92 57 48 46 36 30 30 47 62 60 56 57 50 48
74 82 66 63 68 68 64 83 87 87 94 98 96 72 74 75 77 74 76 70 67 94 93 92 95 91 96 94 98 94 96 92 97 89 69 75 84 94 69 60 41 34 45 33 33 40 47 36 46 62 57 55 58 58
86 73 71 65 64 74 77 87 97 97 98 90 98 74 57 51 68 65 55 45 65 78 69 75 72 80 82 93 93 95 96 89 68 77 69 70 75 78 62 55 52 56 50 37 37 45 45 49 48 42 46 49 53 51
81 72 72 70 73 92 96 93 90 96 85 78 69 69 60 57 52 50 52 48 54 67 68 71 96 97 86 73 64 52 56 56 63 72 58 56 62 52 46 50 55 58 57 49 52 56 47 42 48 52 51 55 58 57
76 74 70 66 79 98 95 88 90 96 94 67 67 70 68 67 57 64 64 64 72 88 92 91 73 63 67 63 59 56 55 54 55 67 72 64 55 49 45 48 48 47 51 54 54 50 49 52 55 65 67 69 71 65
82 77 74 78 98 98 88 76 99 99 92 82 56 65 75 72 75 79 77 74 96 90 82 61 58 58 61 58 48 57 59 60 64 69 66 66 55 59 59 55 52 52 57 58 57 52 58 58 63 70 72 74 75 79
80 72 79 96 98 97 97 95 95 94 96 94 96 91 92 88 76 72 66 81 90 78 72 65 61 60 64 63 54 41 54 64 58 63 64 61 63 64 62 52 58 59 62 60 62 72 75 76 71 66 72 70 67 73
91 98 98 96 97 97 90 88 92 75 100 97 89 100 99 99 61 62 83 65 60 55 53 60 56 54 65 58 66 71 68 64 68 71 66 63 67 61 57 41 42 54 55 52 63 71 56 59 73 79 74 65 66 68
98 98 97 97 97 95 97 98 95 99 100 96 100 100 95 96 64 95 93 66 61 57 61 56 57 65 72 74 73 66 52 56 74 61 53 63 59 49 46 39 41 45 50 55 60 59 57 44 36 38 40 45 47 49
98 98 97 96 96 98 97 97 97 95 98 96 99 97 95 88 100 100 95 62 56 55 52 51 59 60 73 70 67 63 46 66 72 69 52 55 56 54 40 37 42 48 52 58 47 40 39 48 49 38 32 34 36 41
97 80 95 91 95 97 95 99 100 95 94 97 96 75 83 96 95 93 84 54 56 51 48 48 52 60 59 53 54 49 41 55 67 68 50 51 50 47 40 42 46 43 40 39 30 29 32 36 44 38 38 38 48 59
95 95 93 86 78 89 93 87 75 90 96 97 94 100 96 96 94 75 46 42 44 41 39 36 40 46 46 43 46 44 39 46 57 54 48 55 53 45 47 52 49 33 33 39 36 32 39 41 40 42 51 69 76 84
89 89 95 93 100 89 85 98 100 100 94 79 89 100 96 88 68 38 37 34 35 37 39 39 38 39 40 39 41 42 40 41 43 46 48 46 37 34 34 38 40 36 38 37 33 34 38 42 48 54 70 92 99 100
100 78 79 100 100 99 94 86 83 56 42 50 71 60 58 47 45 43 38 38 39 45 46 45 42 42 42 41 41 42 42 42 41 41 41 42 39 37 35 34 32 33 36 36 35 38 40 44 52 60 78 100 100 99
97 80 81 94 93 92 66 64 48 42 49 49 50 53 57 54 48 47 48 49 50 49 48 47 46 46 47 50 49 44 39 41 43 44 45 44 32 29 34 33 30 36 38 38 38 36 40 46 51 58 86 100 100 99
84 86 88 88 88 54 55 52 52 56 62 69 66 69 68 63 56 56 58 54 50 48 50 48 41 37 44 40 40 43 38 30 30 30 34 40 41 44 44 42 48 54 50 48 44 46 52 54 58 73 93 98 97 97
94 94 92 97 85 63 66 71 70 70 66 76 75 72 74 76 76 62 39 51 54 54 44 44 46 36 30 35 37 42 47 50 46 41 41 43 46 46 47 54 62 65 63 62 59 58 56 60 72 87 98 98 98 97
99 99 99 88 87 85 84 77 95 99 100 98 71 66 67 70 75 55 50 40 41 40 38 30 29 31 33 35 38 39 40 41 41 42 44 46 48 50 53 54 59 64 67 63 60 63 69 76 87 97 98 98 98 97

GFSWCAN_850_rhum_138.txt.gz
RH
79 70 64 60 62 62 46 75 82 90 91 98 96 97 100 97 99 100 98 100 100 76 83 81 69 59 55 53 52 52 60 73 83 81 78 73 79 66 59 66 90 90 94 88 75 89 90 49 50 50 30 21 29 29
58 52 54 54 58 65 72 88 99 96 94 97 97 96 100 98 100 100 99 100 100 99 88 94 90 94 93 84 54 52 51 61 64 81 84 77 78 80 70 61 77 79 72 86 77 68 46 44 38 31 33 34 30 32
28 37 42 42 53 62 75 82 84 88 98 91 88 92 99 96 100 100 100 100 99 100 96 95 81 79 80 74 78 62 60 53 57 58 65 72 89 76 77 76 63 69 58 70 67 50 47 46 35 34 32 31 27 29
29 40 41 41 43 48 56 71 78 86 92 95 93 88 87 92 93 91 97 99 99 100 100 92 89 84 77 74 72 74 73 68 66 71 77 94 99 71 76 65 63 50 61 62 67 50 39 37 34 32 35 33 31 29
29 27 28 38 44 45 44 46 50 61 74 85 88 87 84 84 82 82 84 81 79 92 97 93 91 83 72 83 90 80 72 74 76 87 99 99 90 76 86 90 90 52 47 48 49 36 41 39 38 39 42 41 43 43
23 27 28 27 26 30 38 47 49 49 51 57 65 68 65 76 82 78 92 89 100 100 100 99 94 82 79 94 92 88 91 83 86 98 99 99 98 77 99 98 68 52 52 48 44 42 44 43 43 44 49 49 49 47
29 26 25 26 27 27 26 26 35 54 60 58 57 56 59 63 70 77 88 100 100 100 99 99 99 98 99 96 93 91 89 90 87 99 100 100 96 86 99 89 62 51 50 51 52 52 55 53 53 54 56 56 58 58
39 34 30 29 28 27 26 26 25 28 42 57 61 58 52 48 50 56 60 79 91 100 100 100 99 99 96 89 91 91 95 98 96 98 100 100 97 98 98 77 56 57 58 59 58 58 60 60 59 52 48 51 55 60
47 39 35 34 30 28 27 26 25 24 24 26 32 48 50 41 53 69 74 87 92 94 100 100 98 96 98 97 92 99 100 100 96 98 98 99 97 97 84 66 60 60 60 53 56 57 58 60 48 45 43 44 55 46
50 42 39 45 53 52 35 33 30 29 28 32 48 60 76 99 90 89 88 95 100 98 100 99 96 98 90 100 100 100 99 98 98 94 97 99 90 65 56 64 61 54 62 67 67 65 52 48 46 42 43 53 58 60
55 54 48 48 59 52 69 52 49 45 36 66 78 78 91 85 79 74 90 99 99 99 99 96 97 86 86 97 96 90 98 98 98 88 97 96 93 71 58 57 60 60 57 58 56 52 50 47 44 57 52 54 57 59
62 65 63 60 54 46 48 59 70 63 64 94 92 89 97 94 91 97 94 96 99 94 90 95 92 92 87 91 93 99 98 98 96 94 98 98 83 63 60 60 60 55 54 56 54 45 47 55 58 58 57 56 53 56
56 55 59 67 70 72 68 59 58 74 71 60 83 91 95 85 96 98 96 98 96 89 89 97 91 90 98 99 100 99 98 95 93 98 94 89 72 86 85 70 59 60 59 62 69 79 59 45 60 61 59 55 47 39
62 61 58 56 59 64 69 71 70 74 86 71 98 99 96 94 96 94 92 90 70 81 97 99 94 99 99 99 98 99 94 98 97 96 94 83 94 99 100 92 95 96 90 85 67 46 33 33 32 58 63 61 52 48
73 69 68 72 66 63 62 66 66 75 89 84 96 95 99 87 72 76 86 78 77 90 95 99 99 100 98 99 94 92 97 95 93 90 86 99 100 99 99 98 95 87 64 78 90 77 58 32 32 28 51 63 62 56
82 72 69 72 67 63 63 64 75 82 93 94 96 92 97 98 96 82 82 94 97 95 90 96 98 98 86 95 99 94 97 95 92 98 98 80 82 65 64 79 70 68 49 46 47 51 58 43 48 46 33 30 50 62
81 72 62 64 60 65 66 83 93 87 95 98 95 86 74 68 78 63 60 54 54 76 95 83 98 93 94 98 94 95 96 73 89 98 88 76 60 49 56 67 68 67 47 43 42 53 61 50 49 51 40 32 35 34
91 71 73 67 63 68 79 95 97 97 97 78 98 91 65 58 64 64 55 48 56 67 68 77 58 78 90 93 76 76 67 63 70 72 72 63 52 46 45 44 59 63 48 48 46 44 50 47 55 49 42 38 46 49
81 79 77 75 73 88 95 98 95 97 88 75 62 62 58 58 57 54 54 50 55 63 72 74 90 90 75 61 79 78 72 69 62 55 57 55 51 49 42 48 56 54 51 55 53 50 46 48 52 46 44 53 62 59
80 88 90 87 84 98 97 96 97 87 89 64 63 68 69 66 61 66 65 63 72 86 96 99 74 60 56 52 50 49 50 50 65 71 71 60 52 47 48 51 55 54 54 54 51 42 43 45 35 37 45 53 60 59
96 96 97 97 98 98 93 83 97 96 92 81 60 66 70 66 70 74 76 65 83 89 82 72 70 66 57 57 56 55 57 60 66 75 71 67 62 64 64 59 62 60 58 52 50 44 50 52 55 54 62 69 72 78
97 93 96 93 97 98 97 96 81 79 90 91 86 81 85 88 76 70 68 80 85 76 73 68 62 55 58 52 48 56 60 62 65 67 67 70 77 74 79 69 68 65 58 47 48 49 56 56 49 51 55 53 54 59
96 95 97 96 97 90 91 98 98 95 100 95 93 100 100 97 61 62 75 62 60 54 53 55 54 46 54 54 60 55 55 68 70 72 76 79 79 77 76 66 60 64 57 40 44 52 56 47 49 53 48 50 49 41
98 96 90 94 96 95 98 95 97 98 100 100 100 100 90 87 58 92 95 59 52 53 56 52 52 63 65 67 70 59 46 60 74 70 64 76 83 72 68 61 57 57 52 43 50 55 48 43 35 31 33 34 30 37
98 97 92 96 97 96 95 99 99 99 99 100 100 97 91 80 96 100 96 57 51 52 55 50 66 68 74 67 59 53 43 59 64 68 53 66 71 73 72 58 56 56 53 48 48 45 40 30 28 34 38 38 32 33
96 83 96 91 97 95 93 99 99 97 94 98 96 76 98 95 99 91 70 44 46 48 48 52 54 65 66 59 54 46 40 41 58 65 49 54 60 67 67 66 61 46 41 42 43 35 33 31 31 36 40 35 37 44
96 96 96 90 82 90 94 91 74 90 96 93 94 100 93 96 93 70 41 40 44 42 38 38 45 49 48 44 44 42 41 41 43 44 43 44 48 58 69 72 63 33 39 41 40 40 39 40 40 40 39 34 37 44
88 84 93 92 95 84 88 96 94 92 83 69 82 93 92 90 70 39 37 34 36 36 37 39 42 42 42 44 46 48 47 45 45 47 48 46 43 42 43 43 37 33 35 35 35 35 36 38 44 44 41 39 38 44
100 81 80 100 97 97 95 87 81 56 50 56 68 59 62 49 45 44 37 32 33 41 46 45 44 45 47 49 54 51 51 51 54 55 53 51 40 35 33 35 38 37 35 34 35 40 38 41 49 50 46 46 46 46
96 72 89 94 96 95 65 68 58 52 55 55 56 55 51 46 43 42 40 39 44 46 45 48 48 51 54 56 53 45 39 42 46 54 58 51 33 28 30 33 36 39 44 49 46 39 48 61 61 58 56 54 50 64
65 84 81 85 83 62 61 59 56 56 58 58 56 59 57 53 52 52 58 57 56 52 54 52 49 49 57 52 52 53 46 34 43 45 47 50 51 47 43 41 42 46 50 51 50 55 60 62 61 58 59 56 62 94
93 95 92 95 78 66 67 67 65 66 64 70 71 67 71 78 78 64 37 48 50 50 38 45 50 37 31 36 39 46 48 47 41 41 42 48 55 55 52 50 50 52 54 57 63 66 65 64 64 65 63 66 92 97
100 100 99 87 80 83 74 76 93 92 95 96 71 63 70 72 82 54 43 43 41 38 35 34 34 35 36 36 37 38 40 41 42 43 44 46 46 47 48 49 52 54 59 61 60 62 64 68 69 72 77 95 97 97

GFSWCAN_850_rhum_144.txt.gz
RH
95 98 94 97 98 100 99 86 64 41 38 68 84 89 92 91 85 95 96 99 99 90 75 78 83 79 63 57 66 58 62 71 71 72 66 56 55 44 46 48 71 68 74 78 70 77 77 46 52 44 25 23 24 28
98 99 100 100 100 96 84 66 54 53 39 75 91 92 93 87 97 100 89 96 99 100 87 84 78 78 82 84 76 62 63 60 66 68 67 62 61 59 49 44 65 59 50 54 54 55 41 46 39 36 36 41 36 37
100 100 100 99 86 73 66 58 61 84 89 89 90 92 95 90 93 95 91 83 100 100 88 89 77 75 78 74 88 88 74 68 81 74 79 86 99 63 62 57 43 53 50 56 56 40 41 35 36 43 39 41 42 43
99 99 91 82 61 55 62 61 66 76 86 94 96 92 94 96 98 99 99 96 98 100 100 85 80 87 75 79 81 81 82 78 74 75 96 99 100 80 89 61 58 47 56 52 51 44 42 42 41 42 43 46 49 50
100 97 78 63 72 54 49 53 56 61 66 73 86 94 95 98 97 96 88 79 85 92 94 87 74 54 52 72 84 89 87 85 84 86 97 95 98 92 82 76 84 57 52 55 53 39 40 42 46 50 53 55 55 57
93 72 47 41 38 35 35 38 44 51 60 61 61 63 68 75 79 74 66 73 88 99 92 99 92 78 76 77 79 86 95 90 91 89 99 99 88 90 100 99 57 58 61 57 54 53 55 57 56 56 58 58 60 65
72 55 35 29 26 25 25 25 25 25 30 40 45 53 57 57 55 58 70 97 100 100 97 95 87 98 95 99 100 96 96 98 95 98 100 98 99 98 98 91 60 58 57 57 57 59 60 59 59 59 62 66 65 59
44 42 37 33 31 29 29 27 24 22 20 20 20 25 36 52 54 50 45 56 80 89 85 89 88 95 99 99 93 96 99 100 98 99 100 98 100 100 98 73 66 65 64 62 59 59 64 69 72 70 70 58 55 57
87 79 76 55 45 38 33 28 25 24 23 22 20 21 25 28 38 48 72 79 64 77 99 99 86 85 92 99 96 97 97 98 97 99 98 99 100 97 74 72 70 72 74 75 66 65 71 69 62 60 66 68 72 68
85 81 58 54 71 76 78 70 50 35 34 30 26 33 71 84 86 85 97 89 95 98 100 94 83 86 94 98 97 95 99 91 96 77 97 100 74 60 65 73 78 73 69 69 71 71 69 63 53 52 59 59 69 70
63 61 56 51 67 75 76 57 62 51 46 54 78 77 91 88 78 84 83 95 97 97 98 92 91 80 85 90 84 90 92 90 92 74 86 83 80 71 87 93 85 82 83 87 89 87 81 75 70 56 50 56 48 52
62 61 59 66 70 71 63 52 46 55 57 72 75 72 78 83 95 84 91 89 91 83 92 95 91 88 82 88 97 96 91 91 91 80 95 85 69 98 98 99 96 94 82 77 80 88 91 89 80 64 56 49 47 34
65 65 62 64 61 64 68 70 61 58 63 63 66 92 85 82 95 94 95 91 93 90 98 98 96 98 99 100 99 98 100 89 84 95 79 67 85 100 96 96 75 59 62 64 61 56 53 51 51 56 52 48 46 38
44 51 55 59 60 66 68 67 70 68 58 66 70 87 82 91 90 82 80 83 88 97 98 98 97 95 99 98 88 96 74 91 91 95 74 60 93 99 97 85 64 47 45 52 52 57 68 72 60 40 34 38 44 41
46 45 50 72 71 70 66 64 69 72 62 70 90 90 94 78 75 75 86 94 91 92 86 96 90 96 88 95 90 84 92 91 83 78 84 98 99 98 75 72 63 54 47 46 45 49 41 46 75 70 47 43 30 31
64 78 78 75 73 70 70 75 86 90 82 78 92 95 92 97 94 93 87 82 78 71 76 74 79 95 85 94 90 80 81 72 77 88 68 64 71 68 57 59 58 61 57 41 49 54 58 50 46 68 56 44 41 39
80 97 65 55 53 58 70 84 99 96 92 99 99 86 74 71 60 56 72 74 69 79 82 78 92 82 73 92 96 84 87 68 70 60 52 44 44 49 54 58 48 45 44 42 47 64 64 50 46 58 60 42 40 41
78 89 80 70 68 72 86 98 97 96 97 89 99 84 68 72 64 56 51 46 51 56 53 79 58 87 77 83 63 49 43 41 40 38 40 50 47 49 50 50 46 44 49 52 56 57 57 56 52 54 57 50 42 32
83 74 79 80 83 90 95 98 96 97 95 86 69 59 60 58 53 52 53 47 49 57 62 76 88 92 69 51 53 51 52 54 54 50 51 48 50 52 52 50 54 54 50 46 48 52 50 51 55 52 53 54 48 35
92 79 75 77 89 98 98 97 97 93 93 70 76 66 67 66 58 60 58 60 74 78 87 95 73 60 57 51 49 50 49 49 52 54 55 56 54 58 56 52 55 54 57 56 60 60 64 65 50 51 50 49 46 34
95 87 78 71 89 98 98 96 97 96 94 76 62 74 74 68 70 75 72 73 88 94 83 68 63 55 46 50 50 52 55 56 57 58 59 59 58 62 64 65 67 70 75 72 74 68 67 70 58 63 58 52 42 41
83 75 79 85 97 97 97 91 97 94 95 96 88 81 79 79 69 64 62 77 83 67 65 53 51 54 57 59 58 54 58 61 65 67 69 73 75 75 73 69 75 79 80 75 75 78 74 72 70 64 65 48 46 44
90 88 96 91 94 93 81 82 94 93 96 95 98 100 99 99 63 64 70 61 58 49 52 55 53 52 60 55 61 63 61 66 70 70 70 72 72 71 73 72 77 83 82 59 64 66 64 65 76 76 73 62 56 49
96 97 95 97 97 94 95 97 97 96 97 98 100 100 99 90 76 95 92 55 50 51 54 53 54 55 55 61 61 56 55 63 70 72 73 78 79 75 72 70 64 64 60 54 60 67 67 59 61 64 62 62 54 53
98 96 95 96 97 96 98 97 96 90 96 93 100 99 87 79 91 100 93 48 43 45 45 43 43 46 58 52 48 39 36 54 60 56 53 55 62 65 61 60 54 49 49 60 56 51 45 50 62 68 64 64 56 54
96 80 92 92 95 91 92 99 100 98 97 100 98 79 96 93 100 88 63 38 38 34 32 32 34 36 38 36 40 39 41 42 44 52 41 42 43 45 45 50 53 48 46 46 49 51 49 49 56 60 55 51 50 52
97 96 92 90 80 88 94 86 81 92 98 98 90 100 96 96 94 75 36 34 34 30 30 32 36 40 42 43 46 47 47 48 50 48 46 48 49 50 52 50 48 39 40 44 46 46 46 46 48 50 49 45 42 40
91 80 98 93 100 93 90 99 96 95 85 70 79 95 88 84 62 34 32 30 30 34 38 40 43 44 47 51 53 58 57 55 55 56 57 56 50 51 47 42 42 39 44 47 50 50 48 47 48 44 45 43 41 39
100 72 77 100 98 100 97 89 83 57 48 53 70 57 61 42 38 38 36 38 43 48 49 50 54 56 64 61 58 58 60 63 68 72 74 78 63 41 47 52 47 46 46 46 42 50 50 48 44 46 48 50 45 46
96 74 89 93 96 91 71 63 58 51 52 51 51 52 53 53 46 48 52 52 56 63 62 68 72 75 77 78 71 61 56 62 73 81 84 78 54 47 50 54 59 63 62 59 55 48 52 60 62 63 62 59 62 59
64 82 92 82 78 60 57 54 51 51 55 60 61 67 62 56 54 50 56 64 63 57 62 63 54 55 67 65 72 76 64 50 56 62 68 65 59 56 53 51 53 60 64 66 64 64 65 67 66 64 62 62 60 64
81 85 83 100 73 62 63 67 66 64 61 66 67 66 70 75 75 64 57 54 53 53 52 61 66 60 61 61 60 61 62 58 59 61 64 70 64 54 49 51 55 57 57 55 57 61 63 65 66 65 63 60 62 68
100 100 95 91 82 74 69 67 83 90 89 84 71 71 74 76 84 61 53 52 52 54 56 67 84 93 95 96 96 94 92 83 69 60 56 57 54 52 50 50 51 54 59 63 60 58 59 60 59 61 64 67 68 68

GFSWCAN_850_rhum_147.txt.gz
RH
88 88 89 87 91 80 81 87 90 94 80 54 53 77 90 89 88 85 83 90 97 90 81 78 72 70 69 61 62 57 62 66 64 66 60 56 52 40 41 33 57 60 67 74 66 71 78 37 46 43 33 28 30 34
96 100 99 89 93 86 96 96 92 91 76 58 69 82 86 91 92 94 95 84 92 99 85 69 83 83 80 77 69 66 62 56 55 63 57 51 57 49 45 51 43 54 42 44 49 50 34 40 35 37 38 39 40 41
100 100 100 100 100 98 99 98 88 74 78 70 68 93 98 95 97 92 99 98 94 99 84 88 81 81 75 76 80 80 73 67 66 66 86 94 93 63 65 54 48 41 39 51 44 33 33 34 37 40 40 41 47 50
100 100 100 100 99 95 84 72 69 71 80 91 99 96 91 97 93 99 100 98 100 99 98 73 74 72 74 77 81 86 84 81 76 82 89 94 100 74 82 61 62 46 50 50 48 41 38 37 38 41 46 50 51 53
99 98 99 99 97 80 61 51 52 55 60 70 82 92 89 92 97 100 99 98 97 91 88 79 78 55 55 58 85 90 92 94 90 89 92 99 96 84 89 80 77 56 55 57 56 40 41 44 48 51 54 53 53 56
100 100 100 99 91 74 60 48 43 42 48 49 50 54 63 74 86 89 77 76 75 86 98 80 78 74 74 80 83 90 89 95 93 91 96 96 87 77 93 90 54 54 57 57 54 53 54 55 56 54 53 54 58 62
70 74 81 71 49 41 36 33 30 30 32 39 48 54 56 56 55 56 78 99 98 100 100 96 82 88 97 94 94 96 99 100 98 96 100 98 99 93 96 88 56 55 55 55 54 54 55 51 52 58 64 68 67 64
79 69 54 46 41 39 36 31 26 25 24 25 26 27 34 46 53 52 49 75 95 93 91 95 82 80 98 99 98 100 100 100 100 99 100 99 98 100 98 64 54 59 63 63 59 58 65 68 68 67 62 66 69 68
85 82 82 71 47 42 38 35 31 28 26 24 22 22 23 28 34 46 44 53 48 63 91 96 80 70 85 98 97 99 99 96 93 98 97 99 96 95 79 69 65 70 70 69 70 69 68 64 62 58 59 62 66 64
79 87 78 76 73 62 67 59 47 37 32 34 30 30 89 73 89 88 80 84 89 84 90 93 79 72 79 92 91 85 99 88 88 70 93 98 78 59 54 56 78 82 84 84 75 76 83 80 75 73 69 63 61 60
84 86 78 58 68 77 82 79 64 51 43 46 71 92 87 93 81 90 96 97 95 94 93 80 71 69 79 76 70 80 80 85 88 61 79 72 61 47 79 85 88 88 86 84 71 75 91 94 94 88 82 74 69 63
78 66 62 61 59 63 59 49 41 44 54 73 81 78 76 85 94 92 78 77 81 70 80 96 89 91 91 89 76 89 86 81 80 74 90 75 48 84 96 98 85 70 62 67 69 58 56 70 71 71 72 70 54 43
65 71 64 60 84 75 66 61 52 44 56 60 60 87 90 86 89 84 82 77 86 83 96 99 93 99 97 99 98 92 96 82 74 91 70 50 74 96 99 86 72 79 58 74 63 62 55 56 52 54 57 55 70 48
63 62 67 67 68 60 64 74 77 68 58 70 82 90 81 82 72 66 63 66 82 96 99 97 90 88 88 98 90 93 69 84 94 90 73 43 80 100 94 94 66 79 70 67 65 62 52 42 46 51 54 56 62 61
48 58 76 67 66 64 65 71 67 67 61 72 85 84 86 68 76 81 84 86 78 96 92 82 82 86 82 95 75 75 84 85 69 51 70 90 90 99 98 92 73 58 61 42 43 61 53 37 50 53 47 59 54 41
54 66 73 70 70 70 63 75 80 77 68 67 84 95 83 88 78 95 94 97 96 94 95 84 82 86 80 74 78 80 75 57 48 80 80 69 62 57 58 61 57 56 54 60 63 65 64 58 51 52 48 38 42 42
75 88 69 64 70 70 80 89 90 86 82 99 99 94 81 78 72 67 86 84 79 89 88 82 94 78 62 78 66 51 62 58 63 59 52 45 35 38 42 45 47 52 57 62 61 64 63 48 44 51 53 29 36 42
85 83 79 65 70 81 94 99 95 96 96 95 94 82 85 69 62 62 68 70 77 75 70 72 50 69 68 64 60 48 44 41 38 34 35 41 42 44 46 48 52 56 52 56 48 47 50 54 64 61 51 45 60 54
89 93 88 87 78 95 96 98 98 97 92 91 78 74 78 75 65 54 54 53 61 64 65 72 84 89 67 51 53 51 51 53 53 49 48 47 48 48 49 50 53 54 54 56 59 64 68 68 71 72 76 75 69 58
97 98 96 93 96 97 97 96 96 92 88 74 78 76 74 66 64 68 67 66 69 82 86 90 68 57 53 47 45 46 46 45 48 49 49 48 48 49 51 54 58 58 59 53 55 66 74 73 69 76 73 72 75 60
98 98 98 97 98 98 93 94 97 95 92 81 64 74 78 75 82 79 76 74 84 91 77 66 59 53 47 49 48 49 50 49 50 50 52 53 53 54 56 58 61 64 67 69 66 66 72 76 72 75 77 72 71 74
96 96 97 98 97 97 97 92 94 96 96 96 94 87 91 89 80 75 74 81 88 72 62 51 50 53 55 56 55 55 56 57 58 60 60 63 65 67 69 70 72 74 76 80 82 83 74 65 75 77 85 80 82 80
95 93 94 94 95 96 90 83 94 83 95 91 97 92 94 95 65 63 80 68 58 49 48 55 53 52 57 55 56 57 58 63 65 64 64 65 66 67 70 72 74 77 80 77 83 90 83 61 67 73 73 84 85 81
98 94 94 95 96 92 100 99 100 100 100 93 92 91 94 94 70 96 87 56 51 47 52 50 53 57 54 61 65 58 44 44 55 52 55 69 68 54 52 52 61 70 76 77 78 77 67 60 56 55 55 65 75 80
96 97 94 95 99 98 98 96 96 88 94 89 92 92 90 84 91 91 74 52 49 50 52 55 57 57 61 53 43 38 33 44 47 40 43 56 50 45 48 44 43 44 52 62 52 51 48 46 48 49 48 51 55 65
96 80 94 94 95 93 88 98 95 94 86 95 93 81 89 88 93 87 70 37 43 44 42 41 43 50 55 51 51 42 44 49 53 56 48 58 60 56 56 66 62 47 63 54 46 44 45 46 50 52 53 53 58 61
95 94 90 88 84 87 90 84 79 82 96 95 86 93 91 97 92 68 35 32 33 29 31 32 34 38 44 42 44 47 48 53 60 61 62 63 64 68 70 69 66 46 67 69 69 68 67 63 59 56 59 56 50 51
83 80 98 95 99 86 89 86 91 93 83 75 77 90 91 84 55 36 34 32 35 36 39 40 41 47 51 51 54 61 63 68 72 75 74 72 69 66 64 68 66 54 49 52 59 67 67 62 57 57 62 60 52 61
100 80 80 100 100 100 98 88 77 58 47 53 65 56 51 41 38 41 42 45 47 50 54 58 59 66 71 74 79 80 80 82 87 92 91 88 66 48 64 62 62 62 63 63 62 65 65 65 63 64 64 66 60 63
95 82 81 87 97 91 61 56 52 49 52 53 54 55 55 55 51 48 53 54 62 66 66 68 71 75 79 83 81 74 74 84 88 93 97 82 57 53 62 70 73 72 70 69 65 66 70 71 69 68 70 76 85 96
68 91 91 70 68 62 60 57 54 54 59 66 65 68 65 58 59 48 63 64 63 62 63 61 60 62 74 71 74 81 78 72 84 91 90 84 78 69 66 67 70 71 73 72 70 70 69 68 67 66 66 65 64 67
88 94 87 96 72 61 61 63 64 65 64 68 73 72 74 78 79 69 56 54 56 60 61 63 62 65 80 90 96 97 96 96 96 97 97 96 95 82 73 72 68 65 68 69 67 65 64 63 63 64 65 63 63 66
100 100 94 88 81 74 65 63 69 89 85 76 68 69 72 75 80 62 58 53 56 62 74 78 82 85 90 94 96 95 96 96 96 96 96 96 96 96 96 84 72 67 66 64 62 60 61 67 69 64 61 63 66 69

GFSWCAN_850_rhum_150.txt.gz
RH
99 95 86 83 83 83 84 81 81 75 80 77 83 67 62 61 76 78 90 88 94 92 80 78 76 66 69 68 71 58 67 70 72 79 78 71 66 48 45 48 71 81 89 90 77 81 89 43 46 47 42 38 39 39
94 100 100 95 92 90 92 87 88 83 92 88 87 70 66 80 90 89 95 86 91 100 81 72 77 72 75 78 71 66 67 61 61 76 75 72 69 59 52 58 42 60 54 64 66 68 43 40 37 36 39 41 46 50
85 98 100 100 100 100 100 100 97 90 86 84 81 74 67 89 89 94 96 98 96 100 79 74 76 79 76 75 81 78 75 70 63 61 84 93 98 74 80 66 53 48 38 54 51 39 37 39 40 37 42 48 53 54
98 94 99 100 100 100 100 100 100 96 85 79 87 99 99 95 90 95 100 96 99 96 98 74 72 73 74 73 73 82 78 81 75 78 83 96 99 74 84 81 76 55 53 53 55 46 44 42 40 47 51 55 56 55
99 100 100 99 99 98 97 96 78 62 59 63 73 84 96 99 100 100 97 96 99 98 97 86 71 58 52 53 77 75 89 91 91 92 98 98 99 83 86 89 81 60 60 63 63 48 50 51 53 53 54 54 54 58
100 100 99 100 100 99 96 74 60 58 57 57 56 60 65 74 87 91 86 96 89 90 97 94 66 69 71 76 76 73 97 98 97 94 90 79 79 75 92 89 54 50 54 57 58 57 56 55 54 55 55 58 60 62
98 100 100 100 100 99 85 69 57 46 39 38 40 49 52 55 58 66 89 98 91 94 91 98 89 89 85 90 93 88 84 88 98 98 99 86 93 86 98 88 57 55 57 56 56 56 58 58 61 60 63 67 63 65
77 77 72 83 83 71 53 41 34 31 30 28 27 26 29 39 49 52 56 86 98 85 94 100 93 75 88 96 99 100 100 100 100 98 100 100 98 97 98 72 57 59 62 63 61 58 58 62 66 63 58 59 62 65
84 90 74 69 53 46 41 38 35 33 30 27 26 26 25 27 32 51 39 42 56 67 93 89 93 89 85 93 96 98 100 99 99 100 100 100 99 97 84 72 66 64 65 64 63 62 66 68 67 66 67 67 64 64
90 86 87 86 81 63 45 42 41 37 34 35 33 32 92 73 63 70 90 81 81 76 80 84 77 90 71 87 93 92 99 96 98 86 89 99 80 62 55 56 60 71 75 79 81 79 80 84 84 81 79 80 78 68
77 75 82 75 79 78 76 82 77 63 47 54 77 91 82 91 85 87 97 90 85 98 91 86 67 74 67 86 86 73 94 88 89 88 94 91 93 65 61 60 67 78 78 79 78 76 73 75 77 79 77 75 68 57
94 86 95 78 55 70 80 78 58 50 61 78 87 80 84 88 90 94 96 80 91 85 83 89 98 85 82 83 81 74 92 92 88 76 96 96 65 62 76 80 85 75 53 53 60 64 64 69 68 68 65 62 56 46
74 82 72 58 54 62 66 57 50 45 58 60 56 77 81 89 86 96 95 92 93 78 85 98 86 98 98 99 97 95 97 88 78 92 84 78 74 88 93 87 70 58 60 56 49 40 31 34 35 42 42 35 49 62
80 63 66 61 62 88 80 66 64 60 59 64 79 99 92 95 93 87 84 86 81 91 91 95 95 97 96 99 98 98 93 98 97 96 93 92 90 94 100 82 79 62 53 44 47 38 58 53 54 56 42 29 52 54
53 55 67 79 78 72 57 78 91 66 57 65 80 97 94 72 69 74 76 86 85 92 90 89 84 84 90 97 94 90 94 96 85 82 94 87 76 76 90 96 84 43 59 50 39 49 57 59 61 62 54 44 39 38
53 58 59 61 62 59 62 73 78 69 62 63 82 96 83 87 82 83 89 89 90 94 90 81 88 94 94 91 88 90 88 84 83 92 73 63 55 55 57 49 41 48 59 56 49 52 54 56 62 54 55 54 44 34
69 78 58 62 63 71 76 84 88 92 74 95 95 67 70 80 80 71 79 72 65 92 95 84 99 90 86 94 95 83 85 84 48 41 34 32 35 36 37 40 42 41 44 48 52 54 56 51 49 51 44 28 34 43
74 73 76 65 67 86 98 98 89 94 100 85 96 81 77 66 65 62 56 60 76 80 64 86 66 96 96 87 69 47 40 38 39 42 42 40 41 43 44 46 45 46 47 48 48 49 54 53 48 38 38 34 54 56
60 73 72 84 94 97 93 98 97 96 84 84 81 75 73 69 61 57 55 56 56 59 65 65 89 98 78 54 54 51 51 53 54 50 50 50 49 49 48 47 47 47 48 50 53 57 59 60 63 67 67 66 69 58
59 67 77 92 97 97 97 96 97 93 96 87 84 77 72 71 59 59 62 66 70 76 93 96 82 57 51 47 47 48 48 48 50 51 51 50 49 50 49 50 51 52 54 55 58 60 65 67 67 69 72 73 74 74
93 90 97 97 98 96 93 97 99 95 86 78 68 72 77 72 75 77 78 78 83 95 92 71 66 60 53 54 53 53 52 52 53 53 53 54 54 55 56 58 60 63 66 69 69 70 71 73 73 73 73 72 76 81
98 99 99 98 98 98 95 98 95 94 88 96 91 81 81 82 75 75 73 83 91 80 73 65 64 62 61 61 57 54 55 56 56 57 57 60 62 61 61 62 65 67 69 72 76 78 77 74 82 83 82 78 78 77
98 98 96 97 96 96 97 97 96 96 96 95 98 100 98 98 75 67 78 72 61 45 43 58 60 56 64 60 56 53 50 53 61 60 56 56 57 55 54 51 50 58 61 55 56 59 59 58 72 81 78 76 75 70
90 91 95 96 95 97 96 96 94 97 100 100 100 97 94 89 86 90 100 60 54 45 50 53 57 59 58 61 64 61 48 46 53 44 40 44 41 41 47 49 46 47 51 47 50 52 50 50 51 53 55 57 59 61
86 98 98 97 96 96 94 94 88 88 96 98 99 99 92 85 100 100 96 49 42 44 48 48 50 54 62 57 52 44 30 39 50 55 39 53 56 55 59 61 59 58 64 71 66 58 57 59 58 57 55 57 59 59
95 82 96 89 96 94 95 100 100 97 95 98 96 78 90 99 100 92 86 38 38 38 36 36 36 35 38 36 44 47 45 48 54 57 55 57 59 61 65 70 72 65 74 76 74 69 63 60 63 64 64 61 64 68
100 92 88 91 86 88 96 85 77 92 98 98 95 100 100 100 97 79 34 31 33 32 33 36 38 40 42 44 46 51 54 56 60 61 61 63 66 72 73 72 71 66 77 79 80 80 78 76 77 76 76 74 68 73
85 75 98 96 93 86 91 96 96 96 91 72 81 97 94 88 56 35 33 30 32 34 37 40 44 46 49 54 60 66 70 73 75 77 80 78 72 72 72 72 71 64 66 75 81 87 89 87 85 86 88 82 74 83
98 78 78 100 98 100 94 90 86 55 48 52 86 62 58 42 37 38 37 40 45 51 54 57 57 64 68 73 77 79 80 82 88 92 93 94 81 55 58 65 68 68 69 71 72 82 84 84 80 82 85 88 83 76
98 87 84 93 100 98 64 57 50 47 54 54 54 55 56 56 51 51 55 57 61 66 68 71 72 75 76 77 76 73 66 74 89 98 97 98 97 94 94 90 91 86 81 84 81 80 80 81 79 78 81 82 77 75
74 86 84 74 77 61 60 58 56 56 59 62 62 65 65 61 52 54 66 64 65 65 66 66 65 67 74 74 84 94 91 84 92 97 97 96 96 96 95 95 96 96 96 91 87 84 82 82 78 76 74 68 66 71
97 98 99 99 78 57 59 62 64 64 63 68 75 73 76 82 84 75 64 60 61 64 69 78 78 77 83 89 91 96 97 96 96 96 95 95 95 95 95 96 96 97 96 96 85 77 77 78 74 72 67 63 65 69
97 100 100 88 80 74 65 63 64 78 82 75 66 67 72 77 82 64 58 57 64 69 71 75 77 84 89 92 94 94 96 96 96 95 96 96 96 96 97 97 96 96 96 96 90 80 78 78 73 69 73 85 78 69

GFSWCAN_850_rhum_153.txt.gz
RH
85 96 100 100 92 82 74 76 77 77 80 78 73 74 77 69 69 75 73 84 92 94 84 80 78 69 68 70 82 62 70 74 78 82 86 81 82 64 50 64 83 86 95 95 86 93 90 45 46 47 41 41 44 52
68 66 82 99 100 97 87 87 90 84 86 86 79 80 80 79 72 95 86 87 90 99 90 81 76 74 76 75 77 69 69 68 65 84 87 82 76 72 64 70 52 73 66 82 75 72 46 42 39 39 42 51 55 56
68 64 63 74 94 100 99 96 100 99 100 98 87 81 80 78 71 94 96 91 95 100 82 75 70 67 74 79 83 77 77 70 64 64 79 91 92 85 85 80 56 49 42 54 51 45 44 42 43 49 53 54 54 56
88 93 98 99 99 100 100 100 100 100 100 99 91 83 82 84 77 91 95 89 94 99 98 81 74 75 72 69 71 79 83 80 76 76 76 94 98 78 91 80 82 61 60 59 64 53 45 43 46 52 55 55 55 53
98 97 100 100 100 100 100 99 99 99 97 89 68 69 82 98 99 98 99 99 85 99 99 90 82 73 62 55 56 58 80 91 89 90 97 96 98 88 88 94 96 62 60 65 64 49 56 58 56 57 56 56 56 57
100 100 100 100 100 99 98 97 98 88 69 66 58 54 60 71 85 89 75 85 91 97 99 99 75 62 63 80 72 67 77 76 97 98 99 98 92 85 99 99 63 48 48 52 58 59 62 59 58 57 58 59 58 62
74 94 100 100 100 100 100 96 84 72 59 52 50 52 53 53 55 67 87 95 93 98 93 85 90 89 87 82 87 92 92 98 100 99 100 96 98 95 100 88 62 57 55 54 54 57 59 59 59 57 59 62 59 59
78 70 90 99 99 99 100 97 83 54 37 32 30 29 30 36 48 54 65 91 86 82 88 94 96 78 85 92 96 97 98 98 99 98 100 100 96 99 97 73 58 52 55 60 65 63 62 60 58 64 60 56 58 59
82 73 71 69 64 69 61 53 43 37 33 31 26 24 24 24 25 41 44 51 64 70 87 83 93 88 92 93 91 98 98 99 97 91 99 98 91 96 81 84 70 61 63 63 63 62 60 64 67 73 77 77 80 78
84 86 74 72 82 65 54 46 40 36 33 31 30 27 53 59 55 55 86 80 70 69 85 90 74 94 78 78 90 91 100 92 99 95 98 99 87 72 70 60 57 63 66 68 67 72 73 70 74 73 74 71 70 69
87 85 88 89 86 82 66 66 72 61 43 44 50 85 92 92 90 90 88 88 76 92 94 84 82 86 72 90 89 73 95 93 91 81 96 92 93 73 45 56 64 76 78 84 83 78 76 73 70 69 61 54 41 34
68 70 73 78 73 68 73 90 79 52 58 77 84 82 89 91 96 93 100 94 98 88 92 86 91 88 80 87 86 76 90 96 82 74 99 98 80 70 85 87 86 71 57 49 42 39 38 37 40 48 50 48 47 50
78 89 96 96 74 54 76 72 51 44 57 73 56 64 71 91 88 98 100 96 97 82 81 92 78 97 98 97 98 95 98 94 81 96 82 85 99 98 97 84 71 61 53 43 34 25 27 24 21 21 21 19 17 25
89 92 83 82 56 54 71 67 54 49 56 52 66 100 89 97 96 91 90 87 83 85 86 94 98 100 98 100 97 99 90 98 100 98 93 97 98 90 94 96 92 86 88 76 33 34 35 30 30 28 26 38 50 42
79 73 80 65 59 67 90 87 87 66 51 56 78 99 98 71 77 85 81 88 86 92 88 90 86 90 95 100 97 90 87 98 90 89 96 88 56 45 40 36 37 38 41 41 37 41 49 49 47 46 48 45 39 40
74 86 71 69 83 84 78 87 97 82 61 61 80 95 89 92 84 80 72 69 70 79 93 85 95 99 96 98 95 96 97 95 82 94 56 58 56 48 46 47 43 41 42 42 44 45 47 47 48 49 50 50 47 44
78 68 58 55 66 77 75 86 91 81 67 83 87 75 72 91 73 68 69 59 58 94 99 95 98 94 86 96 100 90 88 71 36 34 33 32 32 35 37 39 44 45 47 48 48 47 47 47 48 53 54 50 46 44
68 46 47 51 65 80 95 94 76 86 99 100 99 66 79 62 58 57 63 63 64 92 83 90 71 100 95 96 90 70 40 34 34 34 35 36 39 37 38 47 46 49 50 49 48 48 49 50 51 52 53 53 52 53
52 53 63 70 75 88 97 95 78 97 93 89 80 73 66 60 52 49 52 54 58 62 65 71 88 98 80 59 58 54 54 56 56 49 51 47 45 48 50 50 51 50 50 50 50 52 55 58 60 61 62 66 71 67
56 52 64 84 85 94 96 97 98 83 98 74 78 72 72 62 51 55 55 61 68 76 84 96 86 62 58 50 48 49 49 52 55 58 56 54 54 54 52 52 53 53 54 54 54 57 63 62 56 64 69 73 75 75
78 66 73 96 100 98 96 96 100 100 83 85 74 84 73 72 75 71 64 72 84 83 94 68 63 58 53 54 56 58 57 57 58 59 59 59 58 59 60 61 64 64 65 63 62 51 49 50 53 60 69 72 78 81
99 85 94 97 98 98 97 97 91 91 100 92 97 84 83 82 75 63 57 70 80 61 60 58 58 56 64 67 58 60 64 63 64 65 63 67 65 63 62 61 64 60 54 51 59 62 50 46 45 49 58 54 58 68
100 99 99 98 97 97 97 98 97 97 96 96 99 97 99 94 61 54 74 69 60 48 36 43 38 40 56 51 54 58 58 62 67 66 66 63 57 57 60 49 49 53 48 41 51 63 60 53 56 61 62 67 67 63
97 96 96 96 96 96 96 96 96 96 96 96 97 100 94 86 84 98 100 64 46 38 48 47 51 58 55 55 62 52 39 38 49 50 47 53 54 48 49 48 50 55 63 58 59 65 66 64 63 68 69 72 72 70
65 96 89 96 97 95 97 98 97 96 95 96 98 96 90 91 100 100 100 59 41 42 42 40 42 44 54 46 41 36 32 35 44 47 38 44 55 58 56 58 61 60 70 73 71 72 71 70 70 68 68 70 69 66
86 85 97 91 93 90 92 99 95 95 96 100 99 81 93 100 100 93 90 38 32 30 29 31 33 34 34 35 36 36 38 40 45 55 51 54 60 66 70 74 76 72 75 77 77 81 82 77 77 78 78 77 77 79
100 96 93 97 90 90 93 89 83 95 100 99 94 100 100 100 100 78 34 30 30 29 29 30 33 36 39 40 44 50 53 56 61 63 65 70 76 80 82 83 85 75 72 83 90 89 91 88 86 86 86 87 88 90
82 78 96 98 97 88 94 100 99 100 92 74 88 100 96 86 62 35 34 34 35 36 38 41 44 47 51 56 61 66 70 72 74 79 82 80 73 68 65 68 75 89 94 84 81 85 88 89 91 94 98 96 93 94
100 88 83 100 98 100 93 89 85 53 44 51 86 66 64 44 42 42 41 43 45 49 54 56 57 68 72 74 76 76 78 82 90 94 95 90 81 83 92 97 97 96 96 96 95 94 92 92 94 96 99 99 97 100
99 87 86 93 98 100 60 56 48 41 48 50 52 54 56 54 53 55 57 59 60 61 66 70 70 74 76 76 74 67 67 81 90 97 97 97 98 98 98 97 96 96 96 95 97 95 95 96 94 92 90 87 84 82
80 91 87 83 86 60 55 54 56 57 58 59 60 66 64 62 51 58 64 63 66 69 72 72 70 74 78 82 90 94 87 84 91 95 98 96 95 95 96 95 95 96 96 96 97 97 97 98 94 88 88 83 78 81
99 96 98 100 85 58 60 62 63 64 63 65 70 68 72 80 81 67 62 66 69 70 72 80 80 75 82 90 94 96 96 96 97 95 95 95 95 95 96 96 94 95 96 96 96 96 96 99 96 87 82 79 76 76
100 100 100 95 87 77 66 66 64 75 78 79 67 68 74 74 80 64 66 67 70 74 77 79 80 87 91 94 94 94 94 92 94 96 96 96 96 98 98 97 97 98 96 95 96 96 96 98 90 84 83 77 76 91

GFSWCAN_850_rhum_156.txt.gz
RH
76 77 84 92 96 99 88 87 75 75 76 77 78 78 77 74 76 73 81 84 91 92 76 77 76 67 69 70 83 63 69 76 82 87 89 86 87 73 55 59 83 89 94 96 79 92 92 48 46 54 46 46 52 55
66 68 67 67 72 90 98 93 88 81 81 86 90 89 81 76 77 85 98 92 100 100 88 86 85 81 73 70 72 74 69 70 67 84 89 88 87 80 71 74 69 70 68 82 78 72 49 45 43 45 51 54 54 54
65 72 67 59 59 62 87 99 98 96 93 93 100 100 97 84 79 88 95 100 92 98 84 82 77 70 68 68 76 83 76 70 65 65 76 89 92 86 86 86 59 54 53 62 64 50 51 45 46 53 56 56 56 56
98 93 91 82 75 77 85 96 100 100 100 100 100 98 97 88 84 93 98 100 95 90 100 80 74 75 80 77 72 79 78 77 77 75 80 91 94 75 92 80 83 64 60 62 62 56 46 50 52 58 60 58 58 58
94 99 99 100 99 97 99 100 100 100 99 98 98 93 84 77 87 93 99 99 96 98 98 97 83 78 74 77 69 74 76 82 92 89 98 91 86 84 85 91 78 69 63 67 61 51 62 63 68 64 60 58 58 59
74 93 99 99 100 98 96 96 96 97 95 83 71 62 59 62 73 93 87 78 91 100 100 100 88 71 66 64 68 67 78 93 98 96 90 84 84 83 100 90 68 56 56 58 58 57 61 64 71 66 61 60 57 59
82 70 91 100 100 99 100 100 93 90 83 75 66 53 50 49 56 69 81 92 97 99 93 85 81 89 94 92 88 91 94 100 94 86 86 82 88 98 100 95 66 55 56 54 52 64 71 63 63 62 60 62 58 58
95 82 69 68 98 100 100 100 97 87 70 57 48 41 37 39 48 54 71 87 92 88 88 87 85 78 92 90 92 98 90 85 95 90 98 99 99 99 99 87 65 58 53 51 54 58 65 68 64 65 67 68 69 71
96 89 79 66 67 93 96 97 90 72 47 35 31 26 25 26 29 44 55 67 80 77 78 86 89 89 94 90 89 88 79 99 82 100 98 96 95 97 86 74 65 60 69 65 64 66 66 69 80 76 78 76 71 64
87 83 81 82 81 79 84 60 49 45 40 34 31 27 39 57 69 66 75 67 65 68 89 100 87 90 78 78 89 92 93 85 92 88 93 99 80 60 56 59 65 75 74 70 71 76 88 84 71 62 58 56 56 48
84 84 91 79 70 76 70 47 46 44 42 42 40 72 89 85 82 90 80 90 97 85 83 80 82 89 77 93 88 72 94 91 87 78 90 85 93 81 86 78 82 86 83 79 69 57 46 44 43 43 36 31 25 24
84 79 87 88 90 82 72 73 86 69 52 57 73 84 96 95 94 88 94 92 96 88 84 93 91 93 89 95 91 82 92 95 88 75 98 98 84 99 100 72 59 62 66 73 83 77 51 37 25 23 27 27 28 27
88 78 72 78 74 73 70 85 93 55 60 84 73 73 81 92 100 100 97 93 99 87 90 88 85 98 97 98 96 86 98 95 87 99 87 86 97 93 98 84 82 78 73 57 54 41 36 31 34 31 29 30 34 37
89 89 84 80 93 71 67 82 62 54 69 50 56 91 80 99 96 92 88 86 77 73 81 91 98 98 98 85 87 98 90 98 98 96 95 97 80 56 46 36 32 35 32 32 32 34 39 40 40 42 44 42 45 44
89 85 87 97 98 69 60 69 59 59 54 53 77 96 100 70 72 78 88 99 90 84 83 90 89 92 98 99 99 95 93 100 96 88 88 73 60 50 47 48 44 33 34 39 40 40 40 41 46 47 46 47 48 48
97 92 97 87 85 69 75 99 96 78 67 64 77 93 84 94 83 86 82 78 83 90 91 86 97 96 84 100 98 100 98 96 78 92 52 49 49 50 52 48 35 34 38 42 42 45 49 50 50 49 48 48 48 50
98 96 77 80 82 80 92 98 97 92 68 68 70 78 71 78 67 68 64 62 71 88 96 97 100 92 89 100 100 92 92 51 38 31 29 32 36 40 40 38 38 41 45 48 48 48 50 49 51 52 52 49 47 50
98 86 74 76 92 98 98 97 79 86 98 100 97 66 81 66 57 55 55 59 78 90 89 89 77 100 98 100 88 65 40 33 32 33 36 35 38 41 42 45 49 49 50 50 50 51 52 52 53 53 52 49 55 54
95 76 74 72 81 91 95 92 83 89 89 95 88 74 68 60 52 48 49 56 57 62 68 81 94 99 81 68 50 47 51 46 52 51 52 51 50 50 53 53 53 55 54 50 51 55 59 60 59 57 51 50 56 53
85 77 61 64 66 76 87 98 94 73 99 74 84 77 72 69 59 56 54 56 64 79 84 97 94 63 60 45 46 47 52 54 54 58 60 59 59 59 58 58 59 59 60 61 61 64 58 48 42 44 46 50 59 52
98 76 74 83 99 77 79 95 100 100 93 86 81 83 71 75 73 67 63 62 82 82 93 67 58 51 40 47 47 52 59 60 64 64 64 64 63 65 67 69 70 70 69 63 66 54 48 48 44 48 53 54 53 54
86 86 99 100 96 96 95 97 81 88 89 96 98 96 90 90 83 76 69 90 87 69 65 54 44 44 51 49 38 38 44 57 62 68 70 71 75 75 70 61 65 63 60 58 59 55 49 50 54 55 54 56 61 64
95 99 91 98 98 97 97 98 97 97 96 95 100 99 98 94 75 66 77 72 50 43 35 36 33 32 45 40 44 47 47 50 55 53 49 48 45 48 51 46 47 53 56 52 58 62 63 58 61 66 63 66 72 72
94 97 96 96 97 96 96 96 97 97 96 96 97 96 95 91 71 92 95 56 45 40 38 34 39 42 41 44 48 35 30 31 38 39 36 38 48 48 47 45 50 57 62 63 68 71 71 70 70 72 73 74 73 75
94 97 96 96 96 95 97 97 96 96 96 96 96 95 92 88 100 100 100 63 43 37 37 37 38 41 48 39 35 33 32 34 36 40 43 46 51 55 56 58 61 64 70 77 78 78 78 77 79 81 81 83 90 84
84 98 90 88 98 89 94 99 97 95 96 98 99 87 95 100 100 97 91 39 35 32 30 30 31 33 34 35 37 38 42 46 51 56 57 61 66 69 70 72 77 80 80 85 87 86 86 90 92 91 91 92 96 97
91 95 86 87 81 88 92 88 86 96 100 100 97 100 100 100 100 80 34 32 31 31 32 34 37 41 42 43 46 51 57 64 70 74 76 79 81 84 86 89 88 74 72 81 92 97 97 96 96 98 99 98 100 100
75 75 96 98 99 96 100 100 100 100 93 77 87 100 95 90 78 34 34 36 39 41 44 47 51 54 58 62 69 74 76 78 80 80 80 75 68 69 72 78 82 87 95 96 96 96 97 96 96 96 96 94 93 96
100 84 80 100 100 100 96 90 85 59 47 62 89 86 76 40 38 40 43 45 51 57 59 60 62 71 77 80 80 78 75 78 90 90 90 90 85 86 95 99 99 97 97 96 95 95 96 95 95 96 96 97 100 100
97 97 89 97 100 100 64 60 48 36 42 43 45 47 50 52 53 55 58 60 61 62 67 72 76 78 78 78 73 67 72 82 89 96 96 96 96 94 95 95 95 95 95 95 95 94 92 96 96 96 97 96 96 95
84 97 96 92 90 53 50 49 50 52 54 57 58 64 62 62 60 62 61 62 64 67 68 70 73 80 80 82 89 92 85 82 90 97 98 96 96 96 96 96 95 95 96 96 96 96 96 96 96 96 96 95 90 88
100 98 100 100 89 61 66 65 64 65 63 64 69 66 70 76 76 64 68 71 72 73 78 84 79 76 84 86 90 97 100 99 97 95 95 95 95 97 99 99 98 96 96 96 96 96 96 96 98 97 96 92 85 81
100 100 100 98 91 83 73 72 69 77 78 80 74 73 75 75 76 69 75 76 76 78 86 80 83 85 85 92 95 94 95 95 95 96 96 96 96 98 97 96 96 96 96 96 96 96 96 97 97 96 91 86 83 82